STARLINK-36590, 67577

Orbit data source: Space-Track

STARLINK-36590, 67577 is a payload satellite owned by SpaceX/Seattle (US) in SSO that was launched on Sun, 25 Jan 2026 UTC via an FALCON 9 launch vehicle from the Air Force Western Test Range (AFWTR). Payload-class satellites include a variety of spacecraft equipped with specific instruments for various scientific and technological missions. These include communications satellites like Starlink; space stations such as the ISS; scientific satellites like the Hubble; Earth observation satellites from companies like Planet Labs, Umbra, and HawkEye 360; GPS; miniature CubeSats for education and research; and military/defense satellites.

Loading next visibility...
Identifier
67577, 2026-016S
Orbit
SSO
Country
Flag of USUS
Related business
Manufacturer
SpaceX/Seattle
Mission
Operational Commercial Communications
Bus & Motor
STARLINK V2MO, Unknown motor
Mass
575 kg wet, ~530 kg dry
Launch date (UTC)
2026-01-25 (5 months ago)
Launch vehicle
FALCON 9
Launch site
Air Force Western Test Range (AFWTR)
Object type
Payload
Rocket body
Debris
Shape & HBR
Box + 2 Pan, 17.7 m
Radar Cross Section
36.964 m², Large (>1 m²)

Expand to show TLE details & history
Last TLE update: 1 day ago

TLE from 1 day ago
0 STARLINK-36590
1 67577U 26016S   26170.73456163  .00015252  00000-0  47369-3 0  9995
2 67577  97.2844 230.7156 0000758  86.8575 273.2754 15.33453777 22505
Epoch: 2026-06-19T17:37Z
TLE epoch observation values (Epoch: 2026-06-19T17:37:46.124Z)
Latitude
-0.00009°
Longitude
58.31415°
Altitude
468.599 km
Speed
7.632 km/s
True Right ascension
15h 22m 51s
True Declination
0° 00' 00"
Sunlit
Object was in full shadow at epoch
Visualization orbit readout
Latitude
Unknown
Longitude
Unknown
Altitude
Unknown
Speed
Unknown
Apparent Right ascension
Unknown
Apparent Declination
Unknown
Sunlit
N/A
Visualization observer readout
Local Sidereal Time
08:41:35
Azimuth
Unknown
Elevation
Unknown
Doppler factor
Unknown
Orbital elements
Apogee altitude
462.978 km
Perigee altitude
461.941 km
Semi-major axis
6,840.597 km
Eccentricity
0.00008
Inclination
97.2844°
RAAN
230.7156°
Arg. of periapsis
86.8575°
True anomaly
273.26673°
Mean anomaly
273.2754°
Eccentric anomaly
273.27106°
Mean motion
3.83621 °/min
Orbital period
93.84 mins
BSTAR
0.00047369
Loading maneuver chart data...
Computing Atmospheric mass density...
Loading historical data...
Loading historical data...
Loading historical data...
Loading historical data...
Loading historical data...
Loading historical data...
Loading historical data...

Documentation

Showing up to 5 results
|